Location: Norton
(51.3000°N, 0.8167°E)
Time: 03:02:48
(UTC+00:00)

Cosmos 2219 Rocket - Pass Details

Date: 03 March 2021
Orbit: 826 x 848 km, 71.0° (Epoch: 13 April)

Event Time Altitude Azimuth Distance (km) Brightness Sun altitude
Rises 19:24:50 0° 179° (S) 3,354 5.2 -16.9°
Reaches altitude 10° 19:27:25 10° 171° (S) 2,427 4.4 -17.3°
Maximum altitude 19:32:25 35° 107° (ESE) 1,315 2.7 -18.1°
Drops below altitude 10° 19:37:27 10° 43° (NE) 2,453 4.3 -18.9°
Sets 19:40:04 0° 35° (NE) 3,395 5.1 -19.3°
